Location: Dos Palmas
(32.4468°N, 116.8732°W)
Time: 02:13:41
(UTC+00:00)

Ariane Rocket - Pass Details

Date: 20 June 2021
Orbit: 759 x 770 km, 98.7° (Epoch: 27 July)

Event Time Altitude Azimuth Distance (km) Brightness Sun altitude
Exits shadow 04:19:17 13° 173° (S) 2,072 4.8 -15.0°
Maximum altitude 04:23:46 74° 257° (WSW) 803 3.2 -15.7°
Drops below altitude 10° 04:28:52 10° 343° (NNW) 2,317 6.4 -16.5°
Sets 04:31:12 0° 345° (NNW) 3,247 7.3 -16.8°
